Time,TemperatureF,DewpointF,PressureIn,WindDirection,WindDirectionDegrees,WindSpeedMPH,WindSpeedGustMPH,Humidity,HourlyPrecipIn,Conditions,Clouds,dailyrainin,SoftwareType,DateUTC
2013-05-17 00:04:00,70.5,69.9,29.69,SE,135,3.2,-999.0,98,-99.99,,,0.00,Acu-Link.com,2013-05-17 05:04:00,
2013-05-17 00:19:00,71.1,70.5,29.70,South,180,2.7,-999.0,98,-99.99,,,0.00,Acu-Link.com,2013-05-17 05:19:00,
2013-05-17 00:34:00,71.1,70.5,29.69,South,180,2.2,-999.0,98,-99.99,,,0.00,Acu-Link.com,2013-05-17 05:34:00,
2013-05-17 00:53:00,71.1,70.5,29.70,SSE,157,0.0,-999.0,98,-99.99,,,0.00,Acu-Link.com,2013-05-17 05:53:00,
2013-05-17 01:08:00,70.9,70.3,29.69,South,180,2.7,-999.0,98,-99.99,,,0.00,Acu-Link.com,2013-05-17 06:08:00,
2013-05-17 01:23:00,70.9,70.3,29.69,SSW,202,2.7,-999.0,98,-99.99,,,0.00,Acu-Link.com,2013-05-17 06:23:00,
2013-05-17 01:39:00,70.9,70.3,29.69,WSW,247,2.2,-999.0,98,-99.99,,,0.00,Acu-Link.com,2013-05-17 06:39:00,
2013-05-17 01:54:00,70.7,70.1,29.68,South,180,2.7,-999.0,98,-99.99,,,0.00,Acu-Link.com,2013-05-17 06:54:00,
2013-05-17 02:09:00,71.1,70.5,29.68,South,180,3.2,-999.0,98,-99.99,,,0.00,Acu-Link.com,2013-05-17 07:09:00,
2013-05-17 02:24:00,71.1,70.5,29.68,SSE,157,2.2,-999.0,98,-99.99,,,0.00,Acu-Link.com,2013-05-17 07:24:00,
2013-05-17 02:39:00,71.2,70.6,29.68,SE,135,0.0,-999.0,98,-99.99,,,0.00,Acu-Link.com,2013-05-17 07:39:00,
2013-05-17 02:54:00,71.2,70.6,29.68,South,180,2.2,-999.0,98,-99.99,,,0.00,Acu-Link.com,2013-05-17 07:54:00,
2013-05-17 03:11:00,71.4,70.8,29.68,South,180,3.7,-999.0,98,-99.99,,,0.00,Acu-Link.com,2013-05-17 08:11:00,
2013-05-17 03:27:00,71.6,71.0,29.68,SE,135,2.2,-999.0,98,-99.99,,,0.00,Acu-Link.com,2013-05-17 08:27:00,
2013-05-17 03:42:00,71.4,70.8,29.67,SSW,202,2.2,-999.0,98,-99.99,,,0.00,Acu-Link.com,2013-05-17 08:42:00,
2013-05-17 03:57:00,71.2,70.6,29.68,SW,225,3.7,-999.0,98,-99.99,,,0.00,Acu-Link.com,2013-05-17 08:57:00,
2013-05-17 04:12:00,71.1,70.5,29.69,SSE,157,1.7,-999.0,98,-99.99,,,0.00,Acu-Link.com,2013-05-17 09:12:00,
2013-05-17 04:27:00,70.7,70.1,29.69,South,180,1.7,-999.0,98,-99.99,,,0.00,Acu-Link.com,2013-05-17 09:27:00,
2013-05-17 04:42:00,70.7,70.1,29.70,SSE,157,3.2,-999.0,98,-99.99,,,0.00,Acu-Link.com,2013-05-17 09:42:00,
2013-05-17 04:58:00,70.5,69.9,29.70,SSE,157,5.3,-999.0,98,-99.99,,,0.00,Acu-Link.com,2013-05-17 09:58:00,
2013-05-17 05:13:00,70.3,69.7,29.70,SSE,157,1.7,-999.0,98,-99.99,,,0.00,Acu-Link.com,2013-05-17 10:13:00,
2013-05-17 05:28:00,70.2,69.6,29.69,SSE,157,3.2,-999.0,98,-99.99,,,0.00,Acu-Link.com,2013-05-17 10:28:00,
2013-05-17 05:43:00,70.2,69.6,29.69,SSE,157,3.2,-999.0,98,-99.99,,,0.00,Acu-Link.com,2013-05-17 10:43:00,
2013-05-17 05:59:00,70.2,69.6,29.69,WSW,247,3.7,-999.0,98,-99.99,,,0.00,Acu-Link.com,2013-05-17 10:59:00,
2013-05-17 06:14:00,70.2,69.6,29.70,SSE,157,3.7,-999.0,98,-99.99,,,0.00,Acu-Link.com,2013-05-17 11:14:00,
2013-05-17 06:29:00,70.2,69.6,29.71,South,180,2.2,-999.0,98,-99.99,,,0.00,Acu-Link.com,2013-05-17 11:29:00,
2013-05-17 06:44:00,70.2,69.6,29.70,SSW,202,3.7,-999.0,98,-99.99,,,0.00,Acu-Link.com,2013-05-17 11:44:00,
2013-05-17 06:59:00,70.5,69.9,29.71,ESE,112,1.1,-999.0,98,-99.99,,,0.00,Acu-Link.com,2013-05-17 11:59:00,
2013-05-17 07:14:00,70.7,70.1,29.72,SSW,202,4.2,-999.0,98,-99.99,,,0.00,Acu-Link.com,2013-05-17 12:14:00,
2013-05-17 07:29:00,71.1,70.5,29.72,ESE,112,4.2,-999.0,98,-99.99,,,0.00,Acu-Link.com,2013-05-17 12:29:00,
2013-05-17 07:44:00,71.4,70.8,29.72,South,180,3.7,-999.0,98,-99.99,,,0.00,Acu-Link.com,2013-05-17 12:44:00,
2013-05-17 07:59:00,72.0,71.4,29.72,SSW,202,2.2,-999.0,98,-99.99,,,0.00,Acu-Link.com,2013-05-17 12:59:00,
2013-05-17 08:15:00,72.3,71.7,29.73,East,90,3.7,-999.0,98,-99.99,,,0.00,Acu-Link.com,2013-05-17 13:15:00,
2013-05-17 08:31:00,72.9,72.3,29.73,SE,135,2.7,-999.0,98,-99.99,,,0.00,Acu-Link.com,2013-05-17 13:31:00,
2013-05-17 08:46:00,73.4,72.8,29.73,South,180,6.3,-999.0,98,-99.99,,,0.00,Acu-Link.com,2013-05-17 13:46:00,
2013-05-17 09:01:00,73.6,73.0,29.74,South,180,3.2,-999.0,98,-99.99,,,0.00,Acu-Link.com,2013-05-17 14:01:00,
2013-05-17 09:16:00,73.4,72.8,29.75,South,180,6.8,-999.0,98,-99.99,,,0.00,Acu-Link.com,2013-05-17 14:16:00,
2013-05-17 09:31:00,73.6,73.0,29.74,South,180,6.8,-999.0,98,-99.99,,,0.00,Acu-Link.com,2013-05-17 14:31:00,
2013-05-17 10:02:00,75.0,73.8,29.73,South,180,4.2,-999.0,96,-99.99,,,0.00,Acu-Link.com,2013-05-17 15:02:00,
2013-05-17 10:17:00,75.9,73.1,29.74,SSE,157,4.2,-999.0,91,-99.99,,,0.00,Acu-Link.com,2013-05-17 15:17:00,
2013-05-17 10:32:00,75.4,72.9,29.74,South,180,4.7,-999.0,92,-99.99,,,0.00,Acu-Link.com,2013-05-17 15:32:00,
2013-05-17 10:47:00,77.5,73.3,29.73,SSW,202,4.7,-999.0,87,-99.99,,,0.00,Acu-Link.com,2013-05-17 15:47:00,
2013-05-17 11:02:00,77.9,73.4,29.74,SW,225,2.7,-999.0,86,-99.99,,,0.00,Acu-Link.com,2013-05-17 16:02:00,
2013-05-17 11:17:00,77.2,72.7,29.74,SSW,202,7.3,-999.0,86,-99.99,,,0.00,Acu-Link.com,2013-05-17 16:17:00,
2013-05-17 11:33:00,77.7,72.5,29.74,SSW,202,4.2,-999.0,84,-99.99,,,0.00,Acu-Link.com,2013-05-17 16:33:00,
2013-05-17 11:48:00,78.1,71.8,29.74,South,180,8.9,-999.0,81,-99.99,,,0.00,Acu-Link.com,2013-05-17 16:48:00,
2013-05-17 12:03:00,79.2,72.5,29.74,South,180,3.2,-999.0,80,-99.99,,,0.00,Acu-Link.com,2013-05-17 17:03:00,
2013-05-17 12:18:00,79.7,72.6,29.74,SSE,157,6.3,-999.0,79,-99.99,,,0.00,Acu-Link.com,2013-05-17 17:18:00,
2013-05-17 12:33:00,77.5,72.6,29.74,SSW,202,3.2,-999.0,85,-99.99,,,0.00,Acu-Link.com,2013-05-17 17:33:00,
2013-05-17 12:49:00,79.9,73.2,29.74,SW,225,4.2,-999.0,80,-99.99,,,0.00,Acu-Link.com,2013-05-17 17:49:00,
2013-05-17 13:04:00,80.6,73.5,29.74,SE,135,1.7,-999.0,79,-99.99,,,0.00,Acu-Link.com,2013-05-17 18:04:00,
2013-05-17 13:19:00,78.6,73.0,29.73,SSE,157,4.7,-999.0,83,-99.99,,,0.00,Acu-Link.com,2013-05-17 18:19:00,
2013-05-17 13:34:00,78.6,73.0,29.73,SSW,202,0.0,-999.0,83,-99.99,,,0.00,Acu-Link.com,2013-05-17 18:34:00,
2013-05-17 13:50:00,82.9,73.7,29.73,SSE,157,3.7,-999.0,74,-99.99,,,0.00,Acu-Link.com,2013-05-17 18:50:00,
2013-05-17 14:05:00,81.0,73.1,29.72,South,180,3.7,-999.0,77,-99.99,,,0.00,Acu-Link.com,2013-05-17 19:05:00,
2013-05-17 14:20:00,82.2,73.5,29.71,SSW,202,2.7,-999.0,75,-99.99,,,0.00,Acu-Link.com,2013-05-17 19:20:00,
2013-05-17 14:35:00,81.7,73.4,29.71,WSW,247,5.3,-999.0,76,-99.99,,,0.00,Acu-Link.com,2013-05-17 19:35:00,
2013-05-17 14:50:00,82.2,74.3,29.71,West,270,2.7,-999.0,77,-99.99,,,0.00,Acu-Link.com,2013-05-17 19:50:00,
2013-05-17 15:05:00,83.5,73.5,29.70,ENE,67,5.8,-999.0,72,-99.99,,,0.00,Acu-Link.com,2013-05-17 20:05:00,
2013-05-17 15:20:00,84.6,73.7,29.70,ENE,67,3.2,-999.0,70,-99.99,,,0.00,Acu-Link.com,2013-05-17 20:20:00,
2013-05-17 15:36:00,85.3,73.9,29.69,SSE,157,2.7,-999.0,69,-99.99,,,0.00,Acu-Link.com,2013-05-17 20:36:00,
2013-05-17 15:51:00,83.5,72.7,29.69,SSE,157,7.8,-999.0,70,-99.99,,,0.00,Acu-Link.com,2013-05-17 20:51:00,
2013-05-17 16:06:00,82.9,72.9,29.69,SSE,157,6.3,-999.0,72,-99.99,,,0.00,Acu-Link.com,2013-05-17 21:06:00,
2013-05-17 16:21:00,84.2,73.8,29.68,SSW,202,6.8,-999.0,71,-99.99,,,0.00,Acu-Link.com,2013-05-17 21:21:00,
2013-05-17 16:36:00,82.9,73.3,29.68,South,180,5.3,-999.0,73,-99.99,,,0.00,Acu-Link.com,2013-05-17 21:36:00,
2013-05-17 16:52:00,84.0,74.0,29.67,South,180,5.8,-999.0,72,-99.99,,,0.00,Acu-Link.com,2013-05-17 21:52:00,
2013-05-17 17:07:00,83.7,74.1,29.68,SW,225,3.7,-999.0,73,-99.99,,,0.00,Acu-Link.com,2013-05-17 22:07:00,
2013-05-17 17:22:00,83.5,74.3,29.67,SSW,202,2.7,-999.0,74,-99.99,,,0.00,Acu-Link.com,2013-05-17 22:22:00,
2013-05-17 17:37:00,83.3,74.1,29.67,SE,135,3.7,-999.0,74,-99.99,,,0.00,Acu-Link.com,2013-05-17 22:37:00,
2013-05-17 17:52:00,84.0,74.4,29.67,SSE,157,3.2,-999.0,73,-99.99,,,0.00,Acu-Link.com,2013-05-17 22:52:00,
2013-05-17 18:08:00,83.7,74.5,29.67,South,180,3.7,-999.0,74,-99.99,,,0.00,Acu-Link.com,2013-05-17 23:08:00,
2013-05-17 18:23:00,82.8,74.4,29.68,South,180,2.2,-999.0,76,-99.99,,,0.00,Acu-Link.com,2013-05-17 23:23:00,
2013-05-17 18:38:00,82.4,74.8,29.67,ESE,112,1.7,-999.0,78,-99.99,,,0.00,Acu-Link.com,2013-05-17 23:38:00,
2013-05-17 18:53:00,83.1,75.1,29.68,SW,225,2.7,-999.0,77,-99.99,,,0.00,Acu-Link.com,2013-05-17 23:53:00,
2013-05-17 19:08:00,81.1,74.7,29.68,SSE,157,2.2,-999.0,81,-99.99,,,0.00,Acu-Link.com,2013-05-18 00:08:00,
2013-05-17 19:24:00,80.4,75.1,29.68,South,180,0.0,-999.0,84,-99.99,,,0.00,Acu-Link.com,2013-05-18 00:24:00,
2013-05-17 19:39:00,79.5,74.9,29.68,SSE,157,0.0,-999.0,86,-99.99,,,0.00,Acu-Link.com,2013-05-18 00:39:00,
2013-05-17 19:54:00,79.2,75.0,29.69,NNE,22,0.0,-999.0,87,-99.99,,,0.00,Acu-Link.com,2013-05-18 00:54:00,
2013-05-17 20:09:00,78.3,74.8,29.69,SSW,202,1.7,-999.0,89,-99.99,,,0.00,Acu-Link.com,2013-05-18 01:09:00,
2013-05-17 20:24:00,77.9,74.7,29.69,SSE,157,2.7,-999.0,90,-99.99,,,0.00,Acu-Link.com,2013-05-18 01:24:00,
2013-05-17 20:39:00,78.1,74.6,29.70,SSE,157,3.2,-999.0,89,-99.99,,,0.00,Acu-Link.com,2013-05-18 01:39:00,
2013-05-17 20:54:00,78.1,73.9,29.71,SSE,157,1.7,-999.0,87,-99.99,,,0.00,Acu-Link.com,2013-05-18 01:54:00,
2013-05-17 21:10:00,78.3,73.8,29.71,SSE,157,1.7,-999.0,86,-99.99,,,0.00,Acu-Link.com,2013-05-18 02:10:00,
2013-05-17 21:25:00,77.9,73.7,29.71,South,180,4.2,-999.0,87,-99.99,,,0.00,Acu-Link.com,2013-05-18 02:25:00,
2013-05-17 21:40:00,77.7,73.5,29.72,ENE,67,1.7,-999.0,87,-99.99,,,0.00,Acu-Link.com,2013-05-18 02:40:00,
2013-05-17 21:55:00,77.7,73.5,29.72,SSE,157,2.2,-999.0,87,-99.99,,,0.00,Acu-Link.com,2013-05-18 02:55:00,
2013-05-17 22:10:00,77.4,73.2,29.73,SSE,157,1.7,-999.0,87,-99.99,,,0.00,Acu-Link.com,2013-05-18 03:10:00,
2013-05-17 22:25:00,77.2,72.7,29.73,SE,135,1.7,-999.0,86,-99.99,,,0.00,Acu-Link.com,2013-05-18 03:25:00,
2013-05-17 22:40:00,77.0,72.1,29.73,SSW,202,4.7,-999.0,85,-99.99,,,0.00,Acu-Link.com,2013-05-18 03:40:00,
2013-05-17 22:56:00,76.5,72.0,29.73,NW,315,3.7,-999.0,86,-99.99,,,0.00,Acu-Link.com,2013-05-18 03:56:00,
2013-05-17 23:11:00,76.1,72.3,29.74,SSE,157,6.3,-999.0,88,-99.99,,,0.00,Acu-Link.com,2013-05-18 04:11:00,
2013-05-17 23:26:00,75.7,72.2,29.74,South,180,3.2,-999.0,89,-99.99,,,0.00,Acu-Link.com,2013-05-18 04:26:00,
2013-05-17 23:41:00,75.2,72.4,29.73,SSW,202,3.2,-999.0,91,-99.99,,,0.00,Acu-Link.com,2013-05-18 04:41:00,
2013-05-17 23:56:00,74.5,72.0,29.73,SSE,157,2.2,-999.0,92,-99.99,,,0.00,Acu-Link.com,2013-05-18 04:56:00,